Regional Weather Roundup
Issued by NWS Upton, NY

Home | Current Version | Previous Version | Text Only | Print | Product List | Glossary On
Versions: 1 2 3 4 5 6 7 8 9 10 11 12 13 14 15 16 17 18 19 20 21 22 23 24 25 26 27
000
ASUS41 KOKX 270708
RWROKX

REGIONAL WEATHER ROUNDUP
NATIONAL WEATHER SERVICE NEW YORK NY
200 AM EST MON FEB 27 2017

NOTE: "FAIR" INDICATES FEW OR NO CLOUDS BELOW 12,000 FEET WITH NO
SIGNIFICANT WEATHER AND/OR OBSTRUCTIONS TO VISIBILITY.

NYZ071-072-176-178-NJZ106-104-270800-
NEW YORK CITY METRO AREA

CITY           SKY/WX    TMP DP  RH WIND       PRES   REMARKS
Central Park   CLEAR     36  16  44 MISG      30.31S
Wall St Helipt NOT AVBL
LaGuardia APRT CLEAR     39  15  37 SW6       30.29S WCI  35
Kennedy INTL   CLEAR     32  21  64 SW7       30.31S WCI  26
Breezy Point     N/A     36 N/A N/A W7          N/A  WCI  30
Newark/Liberty CLEAR     33  19  56 CALM      30.30R
Teterboro      PTCLDY    33  17  51 CALM      30.28S
$$

NYZ177-179-078>081-270800-
LONG ISLAND NEW YORK

CITY           SKY/WX    TMP DP  RH WIND       PRES   REMARKS
Jones Beach      N/A     36 N/A N/A W8          N/A  WCI  29
Matinecock PT  NOT AVBL
Farmingdale    CLEAR     32  17  54 S3        30.30R
MacArthur/ISP  CLEAR     30  18  60 CALM      30.30R
Shirley        CLEAR     27  19  72 CALM      30.31R
Westhampton    CLEAR     17  12  80 CALM      30.32R
Southampton    NOT AVBL
Bridgehampton  NOT AVBL
East Hampton     N/A     22  17  79 CALM      30.30R
Montauk          N/A     36  23  59 VRB6      30.30R WCI  31
$$

NYZ052-065-067-270800-
HUDSON VALLEY

CITY           SKY/WX    TMP DP  RH WIND       PRES   REMARKS
White Plains   CLEAR     30  16  56 W5        30.26R WCI  25
Newburgh       NOT AVBL
Montgomery     CLEAR     23  19  85 SW5       30.25R WCI  17
Poughkeepsie   CLEAR     28  17  63 CALM      30.26R
Albany         PTCLDY    30  18  60 S9        30.21S WCI  22
$$

NJZ001-105-106-008-010-013-015-019>022-104-270800-
NEW JERSEY

CITY           SKY/WX    TMP DP  RH WIND       PRES   REMARKS
Newark/Liberty CLEAR     33  19  56 CALM      30.30R
Teterboro      PTCLDY    33  17  51 CALM      30.28S
Caldwell       PTCLDY    31  17  56 CALM      30.29S
Somerville     PTCLDY    23  19  85 CALM      30.29R
Linden         NOT AVBL
Sussex         CLEAR     24  20  84 CALM      30.26R
Andover          N/A     26  20  77 CALM      30.26R
Trenton        PTCLDY    29  20  69 S3        30.30R
Millville      CLEAR     23  22  96 CALM      30.34R
Atlantic City  CLEAR     29  20  69 SW3       30.34R
Wrightstown    CLEAR     26  18  73 CALM      30.29S
Toms River     CLEAR     20  17  88 CALM      30.34R
Belmar         CLEAR     29  20  69 S7        30.33R WCI  22
$$

PAZ047>061-062-071-270800-
EASTERN PENNSYLVANIA

CITY           SKY/WX    TMP DP  RH WIND       PRES   REMARKS
Philadelphia   PTCLDY    33  21  61 S7        30.34R WCI  27
Allentown      CLEAR     27  16  63 W5        30.28R WCI  22
Scranton       CLEAR     29  18  63 CALM      30.24R
$$

CTZ002-004>006-009-010-012-RIZ004-006-007-MAZ004-011-015-270800-
SOUTHERN NEW ENGLAND
 IN CT

CITY           SKY/WX    TMP DP  RH WIND       PRES   REMARKS
Bradley INTL   CLEAR     28  18  66 S7        30.25R WCI  21
Hartford       PTCLDY    28  19  69 S5        30.27R WCI  23
Danbury        CLEAR     29  15  56 W6        30.28R WCI  23
Wtrbury/Oxford CLEAR     28  14  54 W6        30.26R WCI  22
Bridgeport     CLEAR     34  20  56 W5        30.29R WCI  30
Meriden        CLEAR     29  18  63 CALM      30.28R
New Haven      CLEAR     34  18  52 SW6       30.29R WCI  29
Chester          N/A     30  16  55 VRB3      30.26S
Groton         CLEAR     33  17  51 W6        30.28R WCI  28
Wilimantic     CLEAR     26  20  77 CALM      30.27R

 IN RI

CITY           SKY/WX    TMP DP  RH WIND       PRES   REMARKS
Providence     CLEAR     27  17  66 S6        30.27R WCI  20
Block Island   CLEAR     36  19  50 W14       30.29R WCI  27
Westerly       CLEAR     32  16  51 CALM      30.29R
 IN MA

CITY           SKY/WX    TMP DP  RH WIND       PRES   REMARKS
Boston         PTCLDY    32  19  58 SW10      30.25R WCI  24
Worcester      CLEAR     26  16  65 W10       30.18R WCI  16
Westfield      CLEAR     25  18  74 CALM      30.24R
Provincetown   CLEAR     33  21  61 W14       30.25R WCI  23
Nantucket      CLEAR     32  18  56 W10       30.28R WCI  24
$$

ANZ330-335-338-340-345-350-353-355-270800-
COASTAL MARINE OBSERVATIONS


STATION/POSITION TIME  SKY/WX   TEMP    WIND        PRES    VSBY  WAVE
                                AIR SEA DIR/SP/G                  HT/PER
                 (UTC)          (F)     (DEG/KT/KT) (MB)    (MI)  (FT/S)
NY HARB ENTRANCE 0650            38 42  260/ 10/ 12 1026.5          2/10
20 S FIRE ISLAND 0650            39 43  270/ 16/ 17 1026.6          4/10
GREAT SOUTH BAY  NOT AVBL
23 SSW MONTAUK P 0550            38 44              1025.9          4/10
15 E BARNEGAT LI 0630               44                N/A           3/ 9
HUDSON CANYON    0650               47              1027.1          5/ 6
KINGS POINT      0642            37 40              1025.6
EXECUTION ROCKS  NOT AVBL
CENTRAL LI SOUND 0630            37     260/ 14/ 16   N/A           2/ 4
EASTERN LI SOUND NOT AVBL
ROBBINS REEF     0642            35                 1026.2
$$


>>>>>>>>>>>>>>>>>>>>>>>>>>>> KEY <<<<<<<<<<<<<<<<<<<<<<<<<<<
>                                                          <
>     SKY/WX - Sky Condition/Present Weather               <
>     TMP    - Temperature in Fahrenheit                   <
>     DP     - Dew Point in Fahrenheit                     <
>     RH     - Relative Humidity in Percent                <
>     WIND   - Direction (from) and Speed in MPH           <
>     PRES   - Mean Sea Level Pressure (inches of Hg)      <
>     WCI    - Wind Chill Index                            <
>     VSB    - VISIBILITY IN MILES                         <
>     HX     - HEAT INDEX                                  <
>     TC     - TEMPERATURE IN CELSIUS                      <
>     VRB    - VARIABLE WIND DIRECTION                     <
>                                                          <
>>>>>>>>>>>>>>>>>>>>>>>>>>>> KEY <<<<<<<<<<<<<<<<<<<<<<<<<<<




USA.gov is the U.S. government's official web portal to all federal, state and local government web resources and services.